Probability
0 0 0 0 0 0 0 0 0 0 0 0 0 0 0 0 0 0 0 0 0 0 0 1 1 0 0 0 0 0 1 0 0 0 0 0 0 0 0 0 0 0 0 0
0 0 0 0 0 0 0 0 0 0 0 0 0 0 0 0 0 0 0 0 0 0 1 2 2 1 0 0 0 0 1 0 0 0 0 0 0 0 0 0 0 0 0 0
0 0 0 0 0 0 0 0 0 0 0 0 0 0 0 0 0 0 0 0 0 0 1 2 2 1 0 0 0 0 0 0 0 0 0 0 0 0 0 0 0 0 0 0
0 0 0 0 0 0 0 0 0 0 0 0 0 0 0 0 0 0 0 0 0 0 1 1 1 1 0 0 0 0 0 0 0 0 0 0 0 0 0 0 0 0 0 0
0 0 0 0 0 0 0 0 0 0 0 0 0 0 0 0 0 0 0 0 0 0 1 1 1 0 0 0 0 0 0 0 0 0 0 0 0 0 0 0 0 0 0 0
0 0 0 0 0 0 0 0 0 0 0 0 0 0 0 0 0 0 0 0 0 0 1 1 0 0 0 0 0 0 0 0 0 0 0 0 0 0 0 0 0 0 0 0
0 0 0 0 0 0 0 0 0 0 0 0 0 0 0 0 0 0 0 0 0 0 0 0 0 0 0 0 0 0 0 0 0 0 0 0 0 0 0 0 0 0 0 0
0 0 0 0 0 0 0 0 0 0 0 0 0 0 0 0 0 0 0 0 0 0 0 0 0 0 0 0 0 0 0 0 0 0 0 0 0 0 0 0 0 0 0 0
0 0 0 0 0 0 0 0 0 0 0 0 0 0 0 0 0 0 0 0 0 0 0 0 0 0 0 0 0 0 0 0 0 0 0 0 0 0 0 0 0 0 0 0
0 0 0 0 0 0 0 0 0 0 0 0 0 0 0 0 0 0 0 0 0 0 0 0 0 0 0 0 0 0 0 0 0 0 0 0 0 0 0 0 0 0 0 0
0 0 0 0 0 0 0 0 0 0 0 0 0 0 0 0 0 0 0 0 0 0 0 0 0 0 0 0 0 0 0 0 0 0 0 0 0 0 0 0 0 0 0 0
0 0 0 0 0 0 0 0 0 0 0 0 0 0 0 0 0 0 0 0 0 0 0 0 0 0 0 0 0 0 0 0 0 0 0 0 0 0 0 0 0 0 0 0
0 0 0 0 0 0 0 0 0 0 0 0 0 0 0 0 0 0 0 0 0 0 0 0 0 0 0 0 0 0 0 0 0 0 0 0 0 0 0 0 0 0 0 0
0 0 0 0 0 0 0 0 0 0 0 0 0 0 0 0 0 0 0 0 0 0 0 0 0 0 0 0 0 0 0 0 0 0 0 0 0 0 0 0 0 0 0 0
0 0 0 0 0 0 0 0 0 0 0 0 0 0 0 0 0 0 0 0 0 0 0 0 0 0 0 0 0 0 0 0 1 1 1 0 0 0 0 0 0 0 0 0
0 0 0 0 0 0 0 0 0 0 0 0 0 0 0 0 0 0 0 0 0 0 0 0 0 0 0 0 0 0 0 0 1 2 1 0 0 0 0 0 0 0 0 0
0 0 0 0 0 0 0 0 0 0 0 0 0 0 0 0 0 0 0 0 0 0 0 0 0 0 0 0 0 0 0 0 0 1 1 0 0 0 0 0 0 0 0 0
0 0 0 0 0 0 0 0 0 0 0 0 0 0 0 0 0 0 0 0 0 0 0 0 0 0 0 0 0 0 0 0 0 0 0 0 0 0 0 0 0 0 0 0
0 0 0 0 0 0 0 0 0 0 0 0 0 0 0 0 0 0 0 0 0 0 0 0 0 0 0 0 0 0 0 0 0 0 0 0 0 0 0 0 0 0 0 0
0 0 0 0 0 0 0 0 0 0 0 0 0 0 0 0 0 0 0 0 0 0 0 0 0 0 0 0 0 0 0 0 0 0 0 0 0 0 0 0 0 0 0 0
0 0 0 0 0 0 0 0 0 0 0 0 0 0 0 0 0 0 0 0 0 0 0 0 0 0 0 0 0 0 0 0 0 1 0 0 0 0 0 0 0 0 0 0
0 0 0 0 0 0 0 0 0 0 0 0 0 0 0 0 0 0 0 0 0 0 0 0 0 0 0 0 0 0 0 0 0 0 0 0 0 0 0 0 0 0 0 0
0 0 0 0 0 0 0 0 0 0 0 0 0 0 0 0 0 0 0 0 0 0 0 0 0 0 0 0 0 0 0 0 0 0 0 0 0 0 0 0 0 0 0 0
0 0 0 0 0 0 0 0 0 0 0 0 0 0 0 0 0 0 0 0 0 0 0 0 0 0 0 0 0 0 0 0 0 0 0 0 0 0 0 0 0 0 0 0
0 0 0 0 0 0 0 0 0 0 0 0 0 0 0 0 0 0 0 0 0 0 0 0 0 0 0 0 0 0 0 0 0 0 0 0 0 0 0 0 0 0 0 0
0 0 0 0 0 0 0 0 0 0 0 0 0 0 0 0 0 1 1 1 1 1 0 0 0 0 0 0 0 0 0 0 0 0 0 0 0 0 0 0 0 0 0 0
0 0 0 0 0 0 0 0 0 0 0 0 0 0 0 0 1 2 2 2 2 1 0 0 0 0 0 0 0 0 0 0 0 0 0 0 0 0 0 0 0 0 0 0
Wind_Speed
9 8 9 10 11 12 14 12 10 9 10 8 5 3 3 2 3 3 3 3 4 5 5 6 7 7 7 7 8 8 8 8 7 6 6 6 6 6 6 6 6 6 5 5
10 9 10 13 14 14 15 14 13 12 12 8 5 4 4 3 3 4 3 3 4 5 6 7 7 7 7 8 8 8 8 8 7 7 7 7 6 7 7 6 6 6 6 5
9 7 10 14 14 14 13 13 13 13 10 6 6 6 5 4 4 4 3 4 4 4 5 6 7 8 8 8 8 9 9 8 7 7 7 7 7 7 7 7 6 6 6 5
6 7 12 6 4 9 12 13 12 11 9 8 7 6 5 4 4 3 3 4 4 4 5 5 6 7 7 8 9 9 9 8 8 7 7 7 7 7 7 7 6 6 6 6
6 8 10 7 6 9 11 11 10 11 9 7 5 6 6 4 4 3 3 4 4 5 5 5 6 6 7 8 9 9 8 8 8 8 8 8 7 7 6 6 6 6 6 6
7 8 9 5 3 3 8 10 8 9 9 7 6 6 3 2 2 2 2 3 3 4 5 6 6 6 7 8 8 8 8 8 8 8 8 8 8 7 6 6 5 5 5 6
11 10 8 2 1 4 9 4 3 6 6 7 7 4 1 1 2 2 2 2 3 4 5 5 6 7 8 8 8 7 7 7 7 8 8 8 7 6 6 6 6 6 6 5
10 11 8 3 5 7 4 2 2 5 5 6 5 4 3 3 2 3 3 3 3 4 5 5 6 7 8 8 7 7 7 7 7 7 7 7 7 7 7 7 6 6 5 5
8 7 3 3 6 6 6 5 5 4 5 6 6 5 4 4 3 3 3 3 3 4 5 5 6 7 7 6 6 7 8 8 7 7 7 7 8 8 7 7 6 6 5 5
9 9 8 8 8 8 8 7 7 6 6 6 6 6 5 4 3 3 4 4 4 5 5 6 6 6 6 6 7 7 8 7 7 7 7 7 6 6 6 6 6 6 6 6
10 9 8 9 9 8 8 7 6 6 6 7 7 7 6 4 4 4 4 4 4 5 5 6 6 6 5 6 7 8 7 7 7 7 7 7 6 5 6 6 5 6 5 5
8 7 8 8 8 8 8 8 7 6 7 7 7 7 6 5 5 5 5 5 5 5 5 5 6 6 6 6 7 8 7 6 6 6 6 6 6 5 2 1 3 4 3 4
9 9 10 10 10 9 9 9 7 7 7 6 6 6 6 6 5 6 6 6 6 5 5 5 5 6 6 7 8 8 7 7 6 6 6 6 6 6 5 3 3 3 4 4
10 9 10 10 10 9 9 8 7 6 6 6 5 5 6 6 6 6 6 6 5 5 5 5 6 6 6 7 7 8 7 6 6 6 6 6 6 6 5 6 5 3 3 5
11 11 11 10 10 8 7 6 6 6 5 5 5 5 6 6 7 6 6 5 5 5 5 5 6 5 6 7 7 7 6 5 6 6 6 6 6 6 5 6 5 4 4 4
9 9 10 10 9 8 7 7 6 6 6 5 5 5 6 6 6 6 5 6 6 6 5 6 6 5 6 7 7 6 6 6 6 6 6 6 6 6 6 6 5 5 5 5
9 9 9 9 8 8 8 7 7 7 6 6 5 5 5 5 5 6 6 6 6 5 5 5 5 5 6 7 7 5 5 6 7 6 6 6 6 6 6 6 6 5 5 6
9 9 9 9 8 8 7 7 7 7 6 6 5 5 5 6 6 6 5 5 5 5 4 5 4 5 6 6 6 5 5 6 6 6 6 6 6 6 6 6 6 6 5 6
7 7 7 7 7 7 6 6 6 6 5 5 5 5 5 5 5 5 5 5 6 5 4 4 4 5 6 6 5 5 5 6 6 6 5 6 6 6 6 6 6 6 6 6
5 6 6 6 6 6 5 4 4 4 4 4 5 5 5 4 4 5 5 5 4 3 3 3 4 5 5 6 5 5 5 6 6 6 6 6 6 6 6 6 6 6 6 6
5 5 4 4 4 4 4 4 3 3 3 3 4 4 4 4 4 4 4 4 3 3 3 4 4 4 4 4 5 4 5 6 6 6 6 6 6 6 6 6 6 6 5 5
4 4 4 4 3 3 3 3 3 2 2 3 3 3 4 4 4 4 4 3 2 2 3 3 3 3 4 5 4 4 5 6 5 5 5 6 6 6 6 6 6 5 5 5
4 3 3 3 3 2 2 2 2 1 2 2 3 3 3 3 3 3 3 2 2 3 3 3 3 5 5 4 4 5 5 5 5 5 5 5 6 6 6 6 5 5 5 5
3 3 2 2 2 1 1 2 1 1 1 1 1 2 2 2 2 3 2 2 3 3 3 3 6 7 6 4 4 4 5 5 5 5 5 5 5 5 6 6 6 6 6 7
3 2 2 1 1 1 1 1 1 1 1 1 1 1 2 2 2 2 2 2 3 3 3 4 7 6 5 4 4 4 4 4 4 4 5 5 5 5 5 6 6 6 6 6
2 2 2 2 1 1 1 1 1 1 1 1 1 1 1 1 2 2 2 2 3 2 2 3 4 5 4 4 4 4 4 4 4 4 5 5 5 5 5 6 7 5 5 5
2 1 1 1 1 1 1 1 1 1 1 1 2 1 1 1 1 1 1 2 2 2 2 2 3 3 3 3 3 3 3 3 4 4 4 4 4 4 5 6 5 5 5 5
Wind_Direction
261 268 257 253 239 228 235 241 248 247 253 260 267 265 252 229 207 193 175 171 174 176 173 175 175 177 175 174 176 179 183 185 183 183 180 181 175 175 180 178 179 177 177 175
250 248 248 253 247 236 237 240 243 251 252 261 264 250 239 227 215 211 196 188 187 186 183 183 181 181 176 173 177 180 183 182 176 181 174 176 176 177 178 176 176 174 179 173
246 247 253 244 236 231 228 229 232 240 246 246 246 236 237 232 232 226 210 203 202 200 194 188 187 187 183 176 175 181 183 178 175 179 174 176 173 175 175 176 172 173 177 169
250 237 238 241 220 232 235 234 234 244 247 240 243 241 237 230 228 222 221 221 215 208 201 194 185 186 182 177 178 180 181 177 175 177 173 172 174 175 177 176 173 176 174 167
237 239 253 247 230 223 228 235 229 232 235 236 236 230 213 211 236 236 230 229 217 208 197 191 182 178 180 179 179 181 181 178 177 176 174 174 176 178 176 175 175 176 171 174
230 237 242 234 181 226 238 237 216 224 227 218 213 232 215 180 222 244 241 234 215 198 192 184 177 176 182 181 180 183 183 181 177 176 174 176 177 176 172 173 174 174 171 180
229 238 249 258 210 213 226 235 180 213 218 211 220 252 276 219 229 234 225 219 203 193 190 186 181 182 184 184 184 181 177 176 174 178 180 176 170 168 168 167 170 176 172 175
221 232 236 166 187 220 261 320 239 228 222 224 233 254 253 243 235 226 217 205 200 196 192 186 188 191 189 188 180 171 170 173 174 175 173 170 167 170 171 165 168 176 179 175
228 242 286 226 238 267 293 278 265 249 236 230 236 246 257 254 238 223 219 208 205 198 192 189 192 197 196 183 174 169 169 172 173 171 171 171 173 172 172 174 179 183 186 186
244 250 262 266 266 270 276 279 278 266 256 241 246 250 249 250 238 227 221 215 211 200 196 193 192 196 198 179 176 174 173 173 173 174 172 173 175 177 178 183 188 192 193 191
252 259 265 263 268 271 277 278 273 266 259 254 250 248 242 243 236 228 221 217 214 209 205 201 194 191 189 179 178 179 177 174 174 176 174 175 176 179 188 191 194 195 195 193
250 262 265 272 277 281 279 274 268 261 259 254 249 248 244 240 236 226 220 218 215 212 210 204 196 191 186 184 183 181 178 176 177 176 175 175 171 162 107 157 156 177 188 199
268 279 282 282 283 283 278 279 276 263 255 254 252 248 243 237 233 227 221 218 217 215 213 207 199 193 189 190 189 189 186 180 177 177 175 177 175 174 168 137 131 165 178 180
272 275 272 271 276 280 277 278 279 272 263 254 253 250 243 239 233 229 225 222 219 216 211 207 201 198 192 192 191 192 188 179 179 179 179 180 180 181 179 177 174 174 172 167
262 261 264 271 274 272 269 266 266 264 264 256 248 248 242 236 233 232 228 224 221 218 214 208 204 199 192 192 191 190 186 182 183 179 179 181 179 177 179 181 176 168 159 151
269 267 261 260 261 263 263 262 264 266 262 256 250 250 248 243 238 231 223 218 216 217 216 212 208 199 193 192 188 186 184 178 181 179 177 179 177 175 178 180 177 174 173 163
266 264 260 260 264 265 264 265 266 265 260 252 251 254 249 238 229 220 213 213 217 218 217 213 208 199 195 194 187 183 178 173 177 182 181 179 177 180 181 182 181 179 175 163
267 270 268 265 263 264 267 266 265 262 254 250 248 243 239 231 225 218 209 208 211 213 216 215 205 200 193 191 188 184 178 176 183 185 180 179 178 179 181 180 179 177 164 156
279 279 277 271 264 260 259 261 261 261 253 237 232 236 240 234 225 217 207 206 211 211 212 205 192 198 190 183 182 184 182 179 181 180 178 170 177 178 178 179 178 176 169 165
289 290 287 283 276 266 263 262 261 261 253 240 228 231 231 223 215 209 207 212 217 214 209 192 192 196 188 178 179 186 183 180 178 175 175 177 181 179 179 179 178 176 174 172
297 295 293 291 290 280 269 262 259 260 255 242 230 229 227 217 207 203 208 216 214 200 196 181 194 190 182 172 179 184 180 177 175 175 174 176 178 179 178 177 177 176 174 171
303 301 299 298 295 286 277 266 258 262 258 247 242 234 220 208 203 205 213 226 221 181 187 187 191 173 165 167 182 179 176 174 172 171 174 176 176 176 177 176 177 175 174 171
310 302 299 297 288 276 281 274 265 265 264 259 247 234 221 210 211 213 217 215 205 189 198 192 166 152 160 178 179 176 174 174 174 173 175 177 176 175 174 173 173 172 173 171
315 318 310 298 280 255 268 289 291 282 280 284 266 243 229 215 215 222 228 192 186 191 206 170 156 158 169 181 175 174 174 173 173 174 173 171 172 172 172 171 172 172 172 173
317 314 301 296 284 275 269 272 270 275 287 285 273 256 246 238 232 226 213 198 180 185 186 161 160 165 176 175 171 171 173 173 172 172 172 170 171 172 173 174 174 173 172 173
312 309 296 281 279 282 274 254 249 256 258 260 270 266 261 251 224 217 205 189 180 179 175 162 166 171 178 173 172 170 166 162 165 172 174 172 174 174 174 173 172 172 172 170
316 320 321 324 314 300 287 269 255 256 256 254 267 280 284 276 227 185 171 164 158 157 152 152 158 163 168 166 165 163 165 163 167 171 172 172 175 178 174 171 167 166 166 167